User: anonymous   Login
Location: Champaign/Urbana Astronomical Society Observatory
(40.0333°N, 88.2833°W)
Time: 15:57:29
(UTC-05:00)
Language:

AO-73 - Orbit

View from above orbital plane
View from above orbital plane
View from above satellite
View from above satellite

Ground track
Ground track

The orbit data is extracted from the following two-line orbital elements,

1 39444U 13066AE  19138.71335069  .00000277  00000-0  40188-4 0  9997
2 39444  97.5621 155.8691 0059400 128.6432 232.0120 14.81916646295344
Epoch (UTC): 18 May 2019 17:07:13
Eccentricity: 0.0059400
inclination: 97.5621°
perigee height: 581 km
apogee height: 665 km
right ascension of ascending node: 155.8691°
argument of perigee: 128.6432°
revolutions per day: 14.81916646
mean anomaly at epoch: 232.0120°
orbit number at epoch: 29534

The dashed part of the orbit path shows where the satellite is in the earth's shadow,  

DLR